Regional Weather Roundup
Issued by NWS

Home | Current Version | Previous Version | Text Only | Print | Product List | Glossary On
Versions: 1 2 3 4 5 6 7 8 9 10 11 12 13 14 15 16 17 18 19 20 21 22 23 24 25 26 27 28 29 30 31 32 33 34 35 36 37 38 39 40 41 42 43 44 45 46 47 48 49 50
000
ASUS43 KLSX 262107
RWRMO

WEATHER SUMMARY FOR MISSOURI
NATIONAL WEATHER SERVICE SPRINGFIELD MO
400 PM CDT FRI MAY 26 2017

NOTE: "FAIR" INDICATES FEW OR NO CLOUDS BELOW 12,000 FEET WITH NO
       SIGNIFICANT WEATHER AND/OR OBSTRUCTIONS TO VISIBILITY.
       CURRENT SKY AND/OR WEATHER CONDITIONS ARE NOT AVAILABLE FOR
       CHILLICOTHE AND FARMINGTON.

MOZ001>031-035>038-043-044-053-054-262200-
...NORTHERN AND WESTERN MISSOURI...

CITY           SKY/WX    TMP DP  RH WIND       PRES   REMARKS
KANSAS CTY INT PTSUNNY   82  65  56 N9        29.77R
KANSAS C DTWN  MOSUNNY   83  64  52 N5        29.75R
LEE`S SUMMIT   PTSUNNY   81  66  60 N7        29.77R
ST JOSEPH      PTSUNNY   84  65  52 E6        29.76R
CHILLICOTHE      N/A     84  66  54 VRB5      29.76R
KIRKSVILLE     SUNNY     81  65  58 NW9       29.76R

$$
MOZ066>068-077>081-088>096-101>105-262200-
...SOUTHWEST MISSOURI...

CITY           SKY/WX    TMP DP  RH WIND       PRES   REMARKS
SPRINGFIELD    CLOUDY    80  68  66 W7        29.77R
JOPLIN         PTSUNNY   84  71  65 W6        29.76S

$$
MOZ032>034-039>042-045>050-055>058-069>072-262200-
...CENTRAL MISSOURI...

CITY           SKY/WX    TMP DP  RH WIND       PRES   REMARKS
COLUMBIA       CLOUDY    79  68  69 W7        29.76R
JEFFERSON CITY PTSUNNY   82  66  58 CALM      29.74R
ROLLA          CLOUDY    76  68  76 W8        29.76S
SEDALIA        CLOUDY    80  68  66 CALM      29.77R
WHITEMAN AFB   PTSUNNY   80  68  67 NW7       29.75R
WARRENSBURG    MOSUNNY   81  63  54 CALM      29.76R
OSAGE BEACH    CLOUDY    78  68  71 W5        29.77S

$$
MOZ051-052-059>065-262200-
...EAST CENTRAL MISSOURI...

CITY           SKY/WX    TMP DP  RH WIND       PRES   REMARKS
ST LOUIS INTL  CLOUDY    81  65  58 S9        29.74S
SPIRIT OF STL  CLOUDY    79  67  66 S13       29.73R
ST CHARLES     CLOUDY    81  67  62 S12       29.71S

$$
MOZ072>076-082>087-097>100-106>115-262200-
...SOUTH CENTRAL AND SOUTHEAST MISSOURI...

CITY           SKY/WX    TMP DP  RH WIND       PRES   REMARKS
CAPE GIRARDEAU CLOUDY    77  63  61 SW17G29   29.79R
FARMINGTON     CLOUDY    74  67  78 S13       29.79F
POPLAR BLUFF   LGT RAIN  75  67  76 SW15G23   29.79S
WEST PLAINS    CLOUDY    76  66  71 SW8G17    29.81S

$$




USA.gov is the U.S. government's official web portal to all federal, state and local government web resources and services.